This is the latest recevied weather packets stored in our database for station/object KC1HBM. If no packets are shown the sender has not sent any weather packets the latest 10 day(s).
| Time | Temp. | Humidity | Pressure | Rain* | Wind** | Luminosity | Snow |
|---|---|---|---|---|---|---|---|
| 1777827123 | 8.89° C | 71% | 1002.1 hPa | 0 mm | - | 81 W/m² | - |
| 1777826819 | 8.89° C | 71% | 1002.4 hPa | 0 mm | - | 72 W/m² | - |
| 1777826516 | 8.89° C | 73% | 1002.2 hPa | 0 mm | - | 69 W/m² | - |
| 1777826212 | 8.89° C | 77% | 1002.3 hPa | 0 mm | - | 55 W/m² | - |
| 1777825910 | 8.89° C | 76% | 1002.5 hPa | 0 mm | - | 46 W/m² | - |
| 1777825607 | 8.89° C | 77% | 1002.4 hPa | 0 mm | - | 50 W/m² | - |
| 1777825305 | 8.33° C | 78% | 1002.4 hPa | 0 mm | - | 44 W/m² | - |
| 1777825002 | 8.33° C | 77% | 1002.3 hPa | 0 mm | - | 54 W/m² | - |
| 1777824697 | 8.33° C | 78% | 1002.3 hPa | 0 mm | - | 43 W/m² | - |
| 1777824395 | 8.33° C | 78% | 1002.5 hPa | 0 mm | - | 40 W/m² | - |
| 1777824090 | 8.33° C | 78% | 1002.5 hPa | 0 mm | - | 55 W/m² | - |
| 1777823787 | 8.33° C | 78% | 1002.5 hPa | 0 mm | - | 46 W/m² | - |
| 1777823484 | 8.33° C | 78% | 1002.5 hPa | 0 mm | - | 51 W/m² | - |
| 1777823181 | 8.33° C | 79% | 1002.5 hPa | 0 mm | - | 41 W/m² | - |
| 1777822880 | 8.33° C | 80% | 1002.7 hPa | 0 mm | - | 52 W/m² | - |
| 1777822577 | 8.33° C | 81% | 1002.6 hPa | 0 mm | - | 68 W/m² | - |
| 1777822274 | 8.33° C | 81% | 1002.4 hPa | 0 mm | - | 56 W/m² | - |
| 1777821971 | 8.33° C | 82% | 1002.9 hPa | 0 mm | - | 59 W/m² | - |
| 1777821670 | 8.33° C | 81% | 1002.6 hPa | 0 mm | - | 55 W/m² | - |
| 1777821367 | 8.33° C | 81% | 1002.8 hPa | 0 mm | - | 54 W/m² | - |
| 1777821063 | 8.33° C | 82% | 1002.7 hPa | 0 mm | - | 71 W/m² | - |
| 1777820760 | 8.33° C | 83% | 1002.9 hPa | 0 mm | - | 175 W/m² | - |
| 1777820456 | 7.78° C | 85% | 1002.6 hPa | 0 mm | - | 111 W/m² | - |
| 1777820154 | 7.78° C | 86% | 1002.7 hPa | 0 mm | - | 75 W/m² | - |
| 1777819851 | 7.78° C | 86% | 1002.8 hPa | 0 mm | - | 114 W/m² | - |
* Rain latest hour (hover to see other rain measurements)
** Current wind speed in m/s (hover to see current wind gust speed)